Time,TemperatureF,DewpointF,PressureIn,WindDirection,WindDirectionDegrees,WindSpeedMPH,WindSpeedGustMPH,Humidity,HourlyPrecipIn,Conditions,Clouds,dailyrainin,SoftwareType,DateUTC
2013-02-05 00:01:00,38.5,21.9,29.91,SSW,210,2.3,2.3,51,0.00,CLR,,0.00,WeatherDisplay:10.37,2013-02-05 08:01:00,
2013-02-05 00:06:00,37.9,21.4,29.91,SSW,210,1.0,0.0,51,0.00,CLR,,0.00,WeatherDisplay:10.37,2013-02-05 08:06:00,
2013-02-05 00:11:00,37.8,21.7,29.91,SSW,210,0.0,0.0,52,0.00,CLR,,0.00,WeatherDisplay:10.37,2013-02-05 08:11:00,
2013-02-05 00:16:00,37.8,20.8,29.91,SSW,210,0.0,0.0,50,0.00,CLR,,0.00,WeatherDisplay:10.37,2013-02-05 08:16:00,
2013-02-05 00:21:00,37.9,19.9,29.91,SSW,210,2.3,2.3,48,0.00,CLR,,0.00,WeatherDisplay:10.37,2013-02-05 08:21:00,
2013-02-05 00:26:00,38.0,20.0,29.91,SSW,210,1.1,1.1,48,0.00,CLR,,0.00,WeatherDisplay:10.37,2013-02-05 08:26:00,
2013-02-05 00:31:00,38.0,20.0,29.91,SSW,210,0.0,0.0,48,0.00,CLR,,0.00,WeatherDisplay:10.37,2013-02-05 08:31:00,
2013-02-05 00:36:00,38.3,19.8,29.91,SSW,210,0.0,0.0,47,0.00,CLR,,0.00,WeatherDisplay:10.37,2013-02-05 08:36:00,
2013-02-05 00:41:00,38.5,20.0,29.91,SSW,210,0.0,0.0,47,0.00,CLR,,0.00,WeatherDisplay:10.37,2013-02-05 08:41:00,
2013-02-05 00:46:00,38.6,19.6,29.91,SSW,210,2.3,2.3,46,0.00,CLR,,0.00,WeatherDisplay:10.37,2013-02-05 08:46:00,
2013-02-05 00:51:00,38.9,18.8,29.91,SSW,210,1.1,1.1,44,0.00,CLR,,0.00,WeatherDisplay:10.37,2013-02-05 08:51:00,
2013-02-05 00:56:00,39.1,19.0,29.91,SSW,210,2.3,2.3,44,0.00,CLR,,0.00,WeatherDisplay:10.37,2013-02-05 08:56:00,
2013-02-05 01:01:00,39.6,18.4,29.91,SSW,210,3.5,3.5,42,0.00,CLR,,0.00,WeatherDisplay:10.37,2013-02-05 09:01:00,
2013-02-05 01:06:00,40.2,18.3,29.90,SSW,210,3.5,3.5,41,0.00,CLR,,0.00,WeatherDisplay:10.37,2013-02-05 09:06:00,
2013-02-05 01:11:00,40.3,19.0,29.90,SSE,168,3.5,3.5,42,0.00,CLR,,0.00,WeatherDisplay:10.37,2013-02-05 09:11:00,
2013-02-05 01:16:00,40.9,17.8,29.90,SSE,165,3.5,3.5,39,0.00,CLR,,0.00,WeatherDisplay:10.37,2013-02-05 09:16:00,
2013-02-05 01:21:00,41.2,17.5,29.90,SSW,192,4.0,4.0,38,0.00,CLR,,0.00,WeatherDisplay:10.37,2013-02-05 09:21:00,
2013-02-05 01:26:00,42.1,17.7,29.89,South,189,5.0,5.0,37,0.00,CLR,,0.00,WeatherDisplay:10.37,2013-02-05 09:26:00,
2013-02-05 01:31:00,42.2,17.1,29.89,SSE,161,4.6,4.6,36,0.00,CLR,,0.00,WeatherDisplay:10.37,2013-02-05 09:31:00,
2013-02-05 01:36:00,42.5,16.7,29.89,South,189,2.3,2.3,35,0.00,CLR,,0.00,WeatherDisplay:10.37,2013-02-05 09:36:00,
2013-02-05 01:41:00,42.6,16.2,29.89,South,185,3.5,3.5,34,0.00,CLR,,0.00,WeatherDisplay:10.37,2013-02-05 09:41:00,
2013-02-05 01:46:00,42.5,16.7,29.89,South,185,2.3,2.3,35,0.00,CLR,,0.00,WeatherDisplay:10.37,2013-02-05 09:46:00,
2013-02-05 01:51:00,42.5,16.1,29.89,South,185,3.5,3.5,34,0.00,CLR,,0.00,WeatherDisplay:10.37,2013-02-05 09:51:00,
2013-02-05 01:56:00,42.5,16.1,29.89,SSE,168,2.3,2.3,34,0.00,CLR,,0.00,WeatherDisplay:10.37,2013-02-05 09:56:00,
2013-02-05 02:01:00,42.5,16.1,29.89,SSE,168,1.1,1.1,34,0.00,CLR,,0.00,WeatherDisplay:10.37,2013-02-05 10:01:00,
2013-02-05 02:06:00,42.5,16.1,29.89,SSE,168,0.0,0.0,34,0.00,CLR,,0.00,WeatherDisplay:10.37,2013-02-05 10:06:00,
2013-02-05 02:11:00,42.5,16.1,29.89,SSE,168,1.1,0.0,34,0.00,CLR,,0.00,WeatherDisplay:10.37,2013-02-05 10:11:00,
2013-02-05 02:16:00,42.3,16.6,29.90,SSE,168,2.3,2.3,35,0.00,CLR,,0.00,WeatherDisplay:10.37,2013-02-05 10:16:00,
2013-02-05 02:21:00,42.3,15.9,29.89,South,181,4.0,4.0,34,0.00,CLR,,0.00,WeatherDisplay:10.37,2013-02-05 10:21:00,
2013-02-05 02:26:00,42.3,16.6,29.89,South,181,5.8,5.8,35,0.00,CLR,,0.00,WeatherDisplay:10.37,2013-02-05 10:26:00,
2013-02-05 02:31:00,42.5,15.4,29.89,South,176,7.0,7.0,33,0.00,CLR,,0.00,WeatherDisplay:10.37,2013-02-05 10:31:00,
2013-02-05 02:36:00,42.9,15.0,29.89,SSE,167,6.9,6.9,32,0.00,CLR,,0.00,WeatherDisplay:10.37,2013-02-05 10:36:00,
2013-02-05 02:41:00,43.1,15.2,29.89,South,172,5.8,5.8,32,0.00,CLR,,0.00,WeatherDisplay:10.37,2013-02-05 10:41:00,
2013-02-05 02:46:00,43.2,14.6,29.88,South,184,4.6,4.6,31,0.00,CLR,,0.00,WeatherDisplay:10.37,2013-02-05 10:46:00,
2013-02-05 02:51:00,43.3,14.6,29.88,SSW,193,6.0,6.0,31,0.00,CLR,,0.00,WeatherDisplay:10.37,2013-02-05 10:51:00,
2013-02-05 02:56:00,43.6,14.2,29.87,South,184,4.6,4.6,30,0.00,CLR,,0.00,WeatherDisplay:10.37,2013-02-05 10:56:00,
2013-02-05 03:01:00,43.6,14.9,29.87,South,179,2.3,2.3,31,0.00,CLR,,0.00,WeatherDisplay:10.37,2013-02-05 11:01:00,
2013-02-05 03:06:00,43.5,14.1,29.88,South,179,4.6,4.6,30,0.00,CLR,,0.00,WeatherDisplay:10.37,2013-02-05 11:06:00,
2013-02-05 03:11:00,43.3,14.6,29.87,South,179,3.0,3.0,31,0.00,CLR,,0.00,WeatherDisplay:10.37,2013-02-05 11:11:00,
2013-02-05 03:16:00,43.2,14.6,29.88,South,179,2.0,2.0,31,0.00,CLR,,0.00,WeatherDisplay:10.37,2013-02-05 11:16:00,
2013-02-05 03:21:00,43.1,14.5,29.87,South,179,1.1,0.0,31,0.00,CLR,,0.00,WeatherDisplay:10.37,2013-02-05 11:21:00,
2013-02-05 03:26:00,42.6,14.0,29.87,South,179,1.1,1.1,31,0.00,CLR,,0.00,WeatherDisplay:10.37,2013-02-05 11:26:00,
2013-02-05 03:31:00,42.2,14.4,29.88,South,179,1.1,0.0,32,0.00,CLR,,0.00,WeatherDisplay:10.37,2013-02-05 11:31:00,
2013-02-05 03:36:00,41.9,14.1,29.88,South,179,0.0,0.0,32,0.00,CLR,,0.00,WeatherDisplay:10.37,2013-02-05 11:36:00,
2013-02-05 03:41:00,41.9,14.1,29.88,South,179,2.3,2.3,32,0.00,CLR,,0.00,WeatherDisplay:10.37,2013-02-05 11:41:00,
2013-02-05 03:46:00,42.1,14.3,29.88,South,179,0.0,0.0,32,0.00,CLR,,0.00,WeatherDisplay:10.37,2013-02-05 11:46:00,
2013-02-05 03:51:00,42.2,13.7,29.88,South,179,3.5,3.5,31,0.00,CLR,,0.00,WeatherDisplay:10.37,2013-02-05 11:51:00,
2013-02-05 03:56:00,42.2,13.7,29.88,South,179,3.5,3.5,31,0.00,CLR,,0.00,WeatherDisplay:10.37,2013-02-05 11:56:00,
2013-02-05 04:01:00,42.2,14.4,29.88,South,191,5.8,5.8,32,0.00,CLR,,0.00,WeatherDisplay:10.37,2013-02-05 12:01:00,
2013-02-05 04:06:00,42.2,13.7,29.89,South,181,4.6,4.6,31,0.00,CLR,,0.00,WeatherDisplay:10.37,2013-02-05 12:06:00,
2013-02-05 04:11:00,42.3,13.8,29.89,SSW,195,4.6,4.6,31,0.00,CLR,,0.00,WeatherDisplay:10.37,2013-02-05 12:11:00,
2013-02-05 04:16:00,42.3,13.8,29.89,South,182,2.3,2.3,31,0.00,CLR,,0.00,WeatherDisplay:10.37,2013-02-05 12:16:00,
2013-02-05 04:21:00,42.2,14.4,29.88,South,172,2.3,2.3,32,0.00,CLR,,0.00,WeatherDisplay:10.37,2013-02-05 12:21:00,
2013-02-05 04:26:00,41.9,13.4,29.88,SSE,151,2.3,2.3,31,0.00,CLR,,0.00,WeatherDisplay:10.37,2013-02-05 12:26:00,
2013-02-05 04:31:00,41.9,13.4,29.88,SSE,151,1.0,1.0,31,0.00,CLR,,0.00,WeatherDisplay:10.37,2013-02-05 12:31:00,
2013-02-05 04:36:00,42.1,13.6,29.88,South,188,7.0,7.0,31,0.00,CLR,,0.00,WeatherDisplay:10.37,2013-02-05 12:36:00,
2013-02-05 04:41:00,42.5,13.2,29.88,South,186,1.1,0.0,30,0.00,CLR,,0.00,WeatherDisplay:10.37,2013-02-05 12:41:00,
2013-02-05 04:46:00,42.2,13.7,29.88,South,185,3.5,3.5,31,0.00,CLR,,0.00,WeatherDisplay:10.37,2013-02-05 12:46:00,
2013-02-05 04:51:00,41.9,13.4,29.88,South,185,1.1,0.0,31,0.00,CLR,,0.00,WeatherDisplay:10.37,2013-02-05 12:51:00,
2013-02-05 04:56:00,41.8,13.3,29.88,South,185,2.3,2.3,31,0.00,CLR,,0.00,WeatherDisplay:10.37,2013-02-05 12:56:00,
2013-02-05 05:01:00,41.6,13.2,29.88,South,185,0.0,0.0,31,0.00,CLR,,0.00,WeatherDisplay:10.37,2013-02-05 13:01:00,
2013-02-05 05:06:00,41.5,13.1,29.89,South,185,2.3,2.3,31,0.00,CLR,,0.00,WeatherDisplay:10.37,2013-02-05 13:06:00,
2013-02-05 05:11:00,41.5,13.8,29.89,South,186,1.1,1.1,32,0.00,CLR,,0.00,WeatherDisplay:10.37,2013-02-05 13:11:00,
2013-02-05 05:16:00,41.2,13.5,29.89,SSW,213,3.5,3.5,32,0.00,CLR,,0.00,WeatherDisplay:10.37,2013-02-05 13:16:00,
2013-02-05 05:21:00,41.1,13.4,29.89,SSW,213,1.1,0.0,32,0.00,CLR,,0.00,WeatherDisplay:10.37,2013-02-05 13:21:00,
2013-02-05 05:26:00,41.2,13.5,29.89,SSW,213,4.6,4.6,32,0.00,CLR,,0.00,WeatherDisplay:10.37,2013-02-05 13:26:00,
2013-02-05 05:31:00,41.2,14.2,29.89,SSW,213,3.5,3.5,33,0.00,CLR,,0.00,WeatherDisplay:10.37,2013-02-05 13:31:00,
2013-02-05 05:36:00,41.2,14.2,29.89,SSW,202,3.5,3.5,33,0.00,CLR,,0.00,WeatherDisplay:10.37,2013-02-05 13:36:00,
2013-02-05 05:41:00,41.2,14.2,29.89,SSW,202,3.0,3.0,33,0.00,CLR,,0.00,WeatherDisplay:10.37,2013-02-05 13:41:00,
2013-02-05 05:46:00,41.1,14.1,29.89,SW,219,5.0,5.0,33,0.00,CLR,,0.00,WeatherDisplay:10.37,2013-02-05 13:46:00,
2013-02-05 05:51:00,41.1,14.1,29.89,SSW,208,6.0,6.0,33,0.00,CLR,,0.00,WeatherDisplay:10.37,2013-02-05 13:51:00,
2013-02-05 05:56:00,41.3,13.6,29.89,SSW,210,5.0,5.0,32,0.00,CLR,,0.00,WeatherDisplay:10.37,2013-02-05 13:56:00,
2013-02-05 06:01:00,41.5,14.5,29.88,SSW,199,3.5,3.5,33,0.00,CLR,,0.00,WeatherDisplay:10.37,2013-02-05 14:01:00,
2013-02-05 06:06:00,41.8,14.1,29.90,South,188,7.0,7.0,32,0.00,CLR,,0.00,WeatherDisplay:10.37,2013-02-05 14:06:00,
2013-02-05 06:11:00,41.8,14.1,29.90,South,179,4.6,4.6,32,0.00,CLR,,0.00,WeatherDisplay:10.37,2013-02-05 14:11:00,
2013-02-05 06:16:00,41.6,13.9,29.90,SW,216,2.3,2.3,32,0.00,CLR,,0.00,WeatherDisplay:10.37,2013-02-05 14:16:00,
2013-02-05 06:21:00,41.6,13.9,29.90,SW,216,3.5,3.5,32,0.00,CLR,,0.00,WeatherDisplay:10.37,2013-02-05 14:21:00,
2013-02-05 06:26:00,41.5,13.8,29.90,South,176,3.5,3.5,32,0.00,CLR,,0.00,WeatherDisplay:10.37,2013-02-05 14:26:00,
2013-02-05 06:31:00,41.5,13.8,29.91,SSW,199,3.5,0.0,32,0.00,CLR,,0.00,WeatherDisplay:10.37,2013-02-05 14:31:00,
2013-02-05 06:36:00,41.3,13.6,29.91,SSW,196,2.3,2.3,32,0.00,CLR,,0.00,WeatherDisplay:10.37,2013-02-05 14:36:00,
2013-02-05 06:41:00,41.2,13.5,29.92,South,171,2.0,2.0,32,0.00,CLR,,0.00,WeatherDisplay:10.37,2013-02-05 14:41:00,
2013-02-05 06:46:00,41.1,13.4,29.92,South,171,1.1,1.1,32,0.00,CLR,,0.00,WeatherDisplay:10.37,2013-02-05 14:46:00,
2013-02-05 06:51:00,40.9,13.3,29.91,South,171,0.0,0.0,32,0.00,CLR,,0.00,WeatherDisplay:10.37,2013-02-05 14:51:00,
2013-02-05 06:56:00,40.6,13.7,29.91,South,171,0.0,0.0,33,0.00,CLR,,0.00,WeatherDisplay:10.37,2013-02-05 14:56:00,
2013-02-05 07:01:00,40.5,13.6,29.91,South,171,0.0,0.0,33,0.00,CLR,,0.00,WeatherDisplay:10.37,2013-02-05 15:01:00,
2013-02-05 07:06:00,39.3,15.2,29.92,NW,309,3.5,3.5,37,0.00,CLR,,0.00,WeatherDisplay:10.37,2013-02-05 15:06:00,
2013-02-05 07:11:00,38.8,14.7,29.93,NW,309,2.3,2.3,37,0.00,CLR,,0.00,WeatherDisplay:10.37,2013-02-05 15:11:00,
2013-02-05 07:16:00,38.5,15.7,29.93,NW,309,0.0,0.0,39,0.00,CLR,,0.00,WeatherDisplay:10.37,2013-02-05 15:16:00,
2013-02-05 07:21:00,38.3,14.3,29.93,NW,309,1.1,0.0,37,0.00,CLR,,0.00,WeatherDisplay:10.37,2013-02-05 15:21:00,
2013-02-05 07:26:00,37.8,14.4,29.92,East,99,2.3,2.3,38,0.00,CLR,,0.00,WeatherDisplay:10.37,2013-02-05 15:26:00,
2013-02-05 07:31:00,37.6,14.2,29.92,East,99,0.0,0.0,38,0.00,CLR,,0.00,WeatherDisplay:10.37,2013-02-05 15:31:00,
2013-02-05 07:36:00,37.3,15.2,29.92,East,99,1.1,0.0,40,0.00,CLR,,0.00,WeatherDisplay:10.37,2013-02-05 15:36:00,
2013-02-05 07:41:00,37.0,14.9,29.93,East,99,1.0,0.0,40,0.00,CLR,,0.00,WeatherDisplay:10.37,2013-02-05 15:41:00,
2013-02-05 07:46:00,36.8,15.3,29.93,East,99,2.3,2.3,41,0.00,CLR,,0.00,WeatherDisplay:10.37,2013-02-05 15:46:00,
2013-02-05 07:51:00,37.8,14.4,29.92,East,99,4.6,4.6,38,0.00,CLR,,0.00,WeatherDisplay:10.37,2013-02-05 15:51:00,
2013-02-05 07:56:00,37.3,15.7,29.92,SE,138,2.3,2.3,41,0.00,CLR,,0.00,WeatherDisplay:10.37,2013-02-05 15:56:00,
2013-02-05 08:01:00,37.3,15.2,29.93,SE,138,2.3,2.3,40,0.00,CLR,,0.00,WeatherDisplay:10.37,2013-02-05 16:01:00,
2013-02-05 08:06:00,37.9,14.5,29.94,SE,138,0.0,0.0,38,0.00,CLR,,0.00,WeatherDisplay:10.37,2013-02-05 16:06:00,
2013-02-05 08:11:00,38.8,15.3,29.94,SE,138,1.1,1.1,38,0.00,CLR,,0.00,WeatherDisplay:10.37,2013-02-05 16:11:00,
2013-02-05 08:16:00,39.5,15.3,29.94,SW,223,9.0,9.0,37,0.00,CLR,,0.00,WeatherDisplay:10.37,2013-02-05 16:16:00,
2013-02-05 08:21:00,41.3,15.7,29.93,SSW,212,9.2,9.2,35,0.00,CLR,,0.00,WeatherDisplay:10.37,2013-02-05 16:21:00,
2013-02-05 08:26:00,42.3,15.2,29.92,WSW,239,8.1,8.1,33,0.00,CLR,,0.00,WeatherDisplay:10.37,2013-02-05 16:26:00,
2013-02-05 08:31:00,42.6,16.2,29.92,SW,234,5.8,5.8,34,0.00,CLR,,0.00,WeatherDisplay:10.37,2013-02-05 16:31:00,
2013-02-05 08:36:00,42.6,16.2,29.92,WSW,256,4.6,4.6,34,0.00,CLR,,0.00,WeatherDisplay:10.37,2013-02-05 16:36:00,
2013-02-05 08:41:00,42.8,16.3,29.93,WSW,257,3.5,3.5,34,0.00,CLR,,0.00,WeatherDisplay:10.37,2013-02-05 16:41:00,
2013-02-05 08:46:00,42.9,17.1,29.93,WSW,237,10.4,10.4,35,0.00,CLR,,0.00,WeatherDisplay:10.37,2013-02-05 16:46:00,
2013-02-05 08:51:00,42.8,17.0,29.93,WSW,237,1.1,1.1,35,0.00,CLR,,0.00,WeatherDisplay:10.37,2013-02-05 16:51:00,
2013-02-05 08:56:00,42.6,16.2,29.93,WSW,237,0.0,0.0,34,0.00,CLR,,0.00,WeatherDisplay:10.37,2013-02-05 16:56:00,
2013-02-05 09:01:00,42.6,16.8,29.93,SW,236,0.0,0.0,35,0.00,CLR,,0.00,WeatherDisplay:10.37,2013-02-05 17:01:00,
2013-02-05 09:06:00,42.6,16.8,29.92,WSW,237,2.0,2.0,35,0.00,CLR,,0.00,WeatherDisplay:10.37,2013-02-05 17:06:00,
2013-02-05 09:11:00,42.9,17.7,29.92,SSW,192,6.0,6.0,36,0.00,CLR,,0.00,WeatherDisplay:10.37,2013-02-05 17:11:00,
2013-02-05 09:16:00,43.1,18.6,29.93,West,281,4.0,4.0,37,0.00,CLR,,0.00,WeatherDisplay:10.37,2013-02-05 17:16:00,
2013-02-05 09:21:00,43.2,19.3,29.93,West,281,8.0,8.0,38,0.00,CLR,,0.00,WeatherDisplay:10.37,2013-02-05 17:21:00,
2013-02-05 09:26:00,43.3,19.4,29.93,NW,305,6.9,6.9,38,0.00,CLR,,0.00,WeatherDisplay:10.37,2013-02-05 17:26:00,
2013-02-05 09:31:00,43.2,19.9,29.93,West,274,7.0,7.0,39,0.00,CLR,,0.00,WeatherDisplay:10.37,2013-02-05 17:31:00,
2013-02-05 09:37:00,43.6,19.6,29.93,SW,215,9.2,9.2,38,0.00,CLR,,0.00,WeatherDisplay:10.37,2013-02-05 17:37:00,
2013-02-05 09:42:00,44.2,20.2,29.93,SW,233,8.0,8.0,38,0.00,CLR,,0.00,WeatherDisplay:10.37,2013-02-05 17:42:00,
2013-02-05 09:47:00,44.2,20.2,29.93,SSW,210,16.1,16.1,38,0.00,CLR,,0.00,WeatherDisplay:10.37,2013-02-05 17:47:00,
2013-02-05 09:52:00,44.3,20.3,29.92,SW,233,13.0,13.0,38,0.00,CLR,,0.00,WeatherDisplay:10.37,2013-02-05 17:52:00,
2013-02-05 09:57:00,44.6,21.1,29.92,SW,216,15.0,15.0,39,0.00,CLR,,0.00,WeatherDisplay:10.37,2013-02-05 17:57:00,
2013-02-05 10:02:00,44.9,22.6,29.92,SW,229,19.0,19.0,41,0.00,CLR,,0.00,WeatherDisplay:10.37,2013-02-05 18:02:00,
2013-02-05 10:07:00,45.2,22.9,29.92,SSW,200,19.6,19.6,41,0.00,CLR,,0.00,WeatherDisplay:10.37,2013-02-05 18:07:00,
2013-02-05 10:13:00,45.2,23.4,29.92,WSW,240,19.6,19.6,42,0.00,CLR,,0.00,WeatherDisplay:10.37,2013-02-05 18:13:00,
2013-02-05 10:18:00,45.1,24.5,29.92,SW,224,15.0,15.0,44,0.00,CLR,,0.00,WeatherDisplay:10.37,2013-02-05 18:18:00,
2013-02-05 10:23:00,45.1,25.0,29.92,SW,222,17.3,17.3,45,0.00,CLR,,0.00,WeatherDisplay:10.37,2013-02-05 18:23:00,
2013-02-05 10:28:00,44.8,26.3,29.92,SW,224,26.5,26.5,48,0.00,CLR,,0.00,WeatherDisplay:10.37,2013-02-05 18:28:00,
2013-02-05 10:33:00,44.5,27.0,29.92,SW,219,19.6,19.6,50,0.00,CLR,,0.00,WeatherDisplay:10.37,2013-02-05 18:33:00,
2013-02-05 10:39:00,44.2,27.7,29.93,SW,230,19.6,19.6,52,0.00,CLR,,0.00,WeatherDisplay:10.37,2013-02-05 18:39:00,
2013-02-05 10:44:00,44.1,27.1,29.93,SW,233,20.0,20.0,51,0.00,CLR,,0.00,WeatherDisplay:10.37,2013-02-05 18:44:00,
2013-02-05 10:49:00,44.1,27.1,29.93,SW,217,22.0,22.0,51,0.00,CLR,,0.00,WeatherDisplay:10.37,2013-02-05 18:49:00,
2013-02-05 10:54:00,43.9,26.9,29.93,WSW,237,16.1,16.1,51,0.00,CLR,,0.00,WeatherDisplay:10.37,2013-02-05 18:54:00,
2013-02-05 10:59:00,43.9,26.9,29.93,WSW,239,19.6,19.6,51,0.00,CLR,,0.00,WeatherDisplay:10.37,2013-02-05 18:59:00,
2013-02-05 11:04:00,44.0,27.0,29.93,SSW,211,8.0,20.0,51,0.00,CLR,,0.00,WeatherDisplay:10.37,2013-02-05 19:04:00,
2013-02-05 11:10:00,44.8,27.8,29.92,SW,233,17.3,17.3,51,0.00,CLR,,0.00,WeatherDisplay:10.37,2013-02-05 19:10:00,
2013-02-05 11:16:00,44.9,27.4,29.92,SW,222,19.0,19.0,50,0.00,CLR,,0.00,WeatherDisplay:10.37,2013-02-05 19:16:00,
2013-02-05 11:21:00,44.9,27.8,29.92,SSW,206,19.6,19.6,51,0.00,CLR,,0.00,WeatherDisplay:10.37,2013-02-05 19:21:00,
2013-02-05 11:26:00,45.2,28.6,29.92,SW,227,17.0,17.0,52,0.00,CLR,,0.00,WeatherDisplay:10.37,2013-02-05 19:26:00,
2013-02-05 11:31:00,45.2,28.6,29.92,SSW,195,21.0,21.0,52,0.00,CLR,,0.00,WeatherDisplay:10.37,2013-02-05 19:31:00,
2013-02-05 11:36:00,44.8,28.2,29.92,SSW,202,19.6,19.6,52,0.00,CLR,,0.00,WeatherDisplay:10.37,2013-02-05 19:36:00,
2013-02-05 11:41:00,44.6,28.5,29.92,SSW,195,14.0,14.0,53,0.00,CLR,,0.00,WeatherDisplay:10.37,2013-02-05 19:41:00,
2013-02-05 11:46:00,44.6,28.5,29.92,WSW,254,15.0,15.0,53,0.00,CLR,,0.00,WeatherDisplay:10.37,2013-02-05 19:46:00,
2013-02-05 11:51:00,44.6,27.6,29.92,SW,234,26.0,26.0,51,0.00,CLR,,0.00,WeatherDisplay:10.37,2013-02-05 19:51:00,
2013-02-05 11:56:00,43.1,27.6,29.94,SW,232,35.7,35.7,54,0.00,CLR,,0.00,WeatherDisplay:10.37,2013-02-05 19:56:00,
2013-02-05 12:01:00,42.3,26.8,29.94,SW,222,24.2,24.2,54,0.00,CLR,,0.00,WeatherDisplay:10.37,2013-02-05 20:01:00,
2013-02-05 12:06:00,42.3,27.3,29.94,SW,230,17.3,17.3,55,0.00,CLR,,0.00,WeatherDisplay:10.37,2013-02-05 20:06:00,
2013-02-05 12:11:00,42.6,28.0,29.93,SW,224,17.3,17.3,56,0.00,CLR,,0.00,WeatherDisplay:10.37,2013-02-05 20:11:00,
2013-02-05 12:16:00,43.5,28.8,29.93,SSW,206,12.7,12.7,56,0.00,CLR,,0.00,WeatherDisplay:10.37,2013-02-05 20:16:00,
2013-02-05 12:21:00,43.5,28.8,29.93,SW,232,18.0,18.0,56,0.00,CLR,,0.00,WeatherDisplay:10.37,2013-02-05 20:21:00,
2013-02-05 12:26:00,42.6,28.0,29.94,WNW,284,17.3,17.3,56,0.00,CLR,,0.00,WeatherDisplay:10.37,2013-02-05 20:26:00,
2013-02-05 12:31:00,42.3,27.7,29.93,WSW,250,14.0,14.0,56,0.00,CLR,,0.00,WeatherDisplay:10.37,2013-02-05 20:31:00,
2013-02-05 12:36:00,42.5,28.3,29.93,SW,233,11.5,11.5,57,0.00,CLR,,0.00,WeatherDisplay:10.37,2013-02-05 20:36:00,
2013-02-05 12:41:00,42.5,28.3,29.93,SW,224,17.3,17.3,57,0.00,CLR,,0.00,WeatherDisplay:10.37,2013-02-05 20:41:00,
2013-02-05 12:46:00,42.8,29.0,29.92,SW,234,14.0,14.0,58,0.00,CLR,,0.00,WeatherDisplay:10.37,2013-02-05 20:46:00,
2013-02-05 12:51:00,43.3,29.1,29.92,WSW,240,16.0,16.0,57,0.00,CLR,,0.00,WeatherDisplay:10.37,2013-02-05 20:51:00,
2013-02-05 12:56:00,43.5,28.4,29.91,SSW,198,17.3,17.3,55,0.00,CLR,,0.00,WeatherDisplay:10.37,2013-02-05 20:56:00,
2013-02-05 13:01:00,43.8,28.7,29.91,WSW,241,12.7,12.7,55,0.00,CLR,,0.00,WeatherDisplay:10.37,2013-02-05 21:01:00,
2013-02-05 13:06:00,44.2,28.1,29.90,SW,234,15.0,15.0,53,0.00,CLR,,0.00,WeatherDisplay:10.37,2013-02-05 21:06:00,
2013-02-05 13:11:00,44.6,27.1,29.89,WSW,239,22.0,22.0,50,0.00,CLR,,0.00,WeatherDisplay:10.37,2013-02-05 21:11:00,
2013-02-05 13:16:00,45.2,27.6,29.89,SW,229,18.0,18.0,50,0.00,CLR,,0.00,WeatherDisplay:10.37,2013-02-05 21:16:00,
2013-02-05 13:21:00,45.5,26.9,29.89,WSW,247,14.0,14.0,48,0.00,CLR,,0.00,WeatherDisplay:10.37,2013-02-05 21:21:00,
2013-02-05 13:26:00,45.4,25.3,29.89,West,263,20.7,20.7,45,0.00,CLR,,0.00,WeatherDisplay:10.37,2013-02-05 21:26:00,
2013-02-05 13:31:00,45.5,24.8,29.88,West,277,18.4,18.4,44,0.00,CLR,,0.00,WeatherDisplay:10.37,2013-02-05 21:31:00,
2013-02-05 13:36:00,46.0,25.3,29.88,WNW,282,13.0,13.0,44,0.00,CLR,,0.00,WeatherDisplay:10.37,2013-02-05 21:36:00,
2013-02-05 13:41:00,46.1,23.1,29.88,WSW,244,20.0,20.0,40,0.00,CLR,,0.00,WeatherDisplay:10.37,2013-02-05 21:41:00,
2013-02-05 13:46:00,46.2,22.6,29.88,WSW,248,16.1,16.1,39,0.00,CLR,,0.00,WeatherDisplay:10.37,2013-02-05 21:46:00,
2013-02-05 13:51:00,46.4,20.9,29.87,South,185,24.2,24.2,36,0.00,CLR,,0.00,WeatherDisplay:10.37,2013-02-05 21:51:00,
2013-02-05 13:56:00,45.7,20.9,29.87,WSW,247,26.5,26.5,37,0.00,CLR,,0.00,WeatherDisplay:10.37,2013-02-05 21:56:00,
2013-02-05 14:01:00,46.0,21.1,29.87,SW,232,20.7,20.7,37,0.00,CLR,,0.00,WeatherDisplay:10.37,2013-02-05 22:01:00,
2013-02-05 14:06:00,45.8,20.3,29.87,WSW,243,19.6,19.6,36,0.00,CLR,,0.00,WeatherDisplay:10.37,2013-02-05 22:06:00,
2013-02-05 14:11:00,46.0,21.1,29.87,SW,219,14.0,14.0,37,0.00,CLR,,0.00,WeatherDisplay:10.37,2013-02-05 22:11:00,
2013-02-05 14:16:00,46.2,20.7,29.87,WSW,243,22.0,22.0,36,0.00,CLR,,0.00,WeatherDisplay:10.37,2013-02-05 22:16:00,
2013-02-05 14:21:00,46.0,20.5,29.87,WSW,244,25.3,25.3,36,0.00,CLR,,0.00,WeatherDisplay:10.37,2013-02-05 22:21:00,
2013-02-05 14:26:00,46.1,21.2,29.87,SSW,192,20.7,20.7,37,0.00,CLR,,0.00,WeatherDisplay:10.37,2013-02-05 22:26:00,
2013-02-05 14:31:00,46.2,22.0,29.87,SW,230,19.6,19.6,38,0.00,CLR,,0.00,WeatherDisplay:10.37,2013-02-05 22:31:00,
2013-02-05 14:36:00,45.5,23.1,29.88,SW,234,13.8,13.8,41,0.00,CLR,,0.00,WeatherDisplay:10.37,2013-02-05 22:36:00,
2013-02-05 14:41:00,45.7,23.9,29.88,West,278,14.0,14.0,42,0.00,CLR,,0.00,WeatherDisplay:10.37,2013-02-05 22:41:00,
2013-02-05 14:46:00,45.4,23.0,29.88,WSW,250,17.3,17.3,41,0.00,CLR,,0.00,WeatherDisplay:10.37,2013-02-05 22:46:00,
2013-02-05 14:51:00,45.4,23.6,29.89,SSW,213,16.1,16.1,42,0.00,CLR,,0.00,WeatherDisplay:10.37,2013-02-05 22:51:00,
2013-02-05 14:56:00,45.8,23.4,29.88,WSW,244,17.3,17.3,41,0.00,CLR,,0.00,WeatherDisplay:10.37,2013-02-05 22:56:00,
2013-02-05 15:01:00,46.1,21.9,29.88,SSW,210,16.0,16.0,38,0.00,CLR,,0.00,WeatherDisplay:10.37,2013-02-05 23:01:00,
2013-02-05 15:06:00,45.7,18.9,29.89,WSW,241,24.2,24.2,34,0.00,CLR,,0.00,WeatherDisplay:10.37,2013-02-05 23:06:00,
2013-02-05 15:11:00,45.7,18.2,29.89,SSE,165,11.5,11.5,33,0.00,CLR,,0.00,WeatherDisplay:10.37,2013-02-05 23:11:00,
2013-02-05 15:16:00,46.0,20.5,29.89,SW,230,11.0,11.0,36,0.00,CLR,,0.00,WeatherDisplay:10.37,2013-02-05 23:16:00,
2013-02-05 15:22:00,45.4,21.9,29.90,SSW,210,12.0,12.0,39,0.00,CLR,,0.00,WeatherDisplay:10.37,2013-02-05 23:22:00,
2013-02-05 15:27:00,44.9,20.8,29.90,SE,144,7.0,7.0,38,0.00,CLR,,0.00,WeatherDisplay:10.37,2013-02-05 23:27:00,
2013-02-05 15:32:00,45.1,18.4,29.90,South,191,11.5,11.5,34,0.00,CLR,,0.00,WeatherDisplay:10.37,2013-02-05 23:32:00,
2013-02-05 15:37:00,44.8,18.1,29.91,West,275,18.4,18.4,34,0.00,CLR,,0.00,WeatherDisplay:10.37,2013-02-05 23:37:00,
2013-02-05 15:42:00,44.6,18.6,29.91,WSW,251,12.0,12.0,35,0.00,CLR,,0.00,WeatherDisplay:10.37,2013-02-05 23:42:00,
2013-02-05 15:47:00,44.3,18.3,29.92,WSW,256,12.0,12.0,35,0.00,CLR,,0.00,WeatherDisplay:10.37,2013-02-05 23:47:00,
2013-02-05 15:52:00,43.8,19.2,29.92,SW,222,11.5,11.5,37,0.00,CLR,,0.00,WeatherDisplay:10.37,2013-02-05 23:52:00,
2013-02-05 15:57:00,43.5,19.5,29.91,SW,215,5.0,5.0,38,0.00,CLR,,0.00,WeatherDisplay:10.37,2013-02-05 23:57:00,
2013-02-05 16:02:00,43.1,21.0,29.92,SSE,165,11.5,11.5,41,0.00,CLR,,0.00,WeatherDisplay:10.37,2013-02-06 00:02:00,
2013-02-05 16:07:00,42.8,21.3,29.92,SW,224,6.9,6.9,42,0.00,CLR,,0.00,WeatherDisplay:10.37,2013-02-06 00:07:00,
2013-02-05 16:12:00,42.9,21.9,29.92,WSW,246,13.8,13.8,43,0.00,CLR,,0.00,WeatherDisplay:10.37,2013-02-06 00:12:00,
2013-02-05 16:17:00,42.9,21.9,29.92,WSW,244,12.7,12.7,43,0.00,CLR,,0.00,WeatherDisplay:10.37,2013-02-06 00:17:00,
2013-02-05 16:22:00,42.8,22.4,29.92,West,280,10.4,10.4,44,0.00,CLR,,0.00,WeatherDisplay:10.37,2013-02-06 00:22:00,
2013-02-05 16:27:00,42.9,22.5,29.92,SW,217,3.5,3.5,44,0.00,CLR,,0.00,WeatherDisplay:10.37,2013-02-06 00:27:00,
2013-02-05 16:33:00,43.2,22.7,29.92,SW,226,3.5,3.5,44,0.00,CLR,,0.00,WeatherDisplay:10.37,2013-02-06 00:33:00,
2013-02-05 16:38:00,43.1,22.6,29.92,SW,223,4.6,4.6,44,0.00,CLR,,0.00,WeatherDisplay:10.37,2013-02-06 00:38:00,
2013-02-05 16:43:00,43.1,23.2,29.92,WSW,250,0.0,0.0,45,0.00,CLR,,0.00,WeatherDisplay:10.37,2013-02-06 00:43:00,
2013-02-05 16:48:00,42.8,23.4,29.93,West,261,1.1,1.1,46,0.00,CLR,,0.00,WeatherDisplay:10.37,2013-02-06 00:48:00,
2013-02-05 16:53:00,42.2,22.9,29.93,SW,223,5.0,5.0,46,0.00,CLR,,0.00,WeatherDisplay:10.37,2013-02-06 00:53:00,
2013-02-05 16:58:00,41.9,23.1,29.93,SSW,210,0.0,0.0,47,0.00,CLR,,0.00,WeatherDisplay:10.37,2013-02-06 00:58:00,
2013-02-05 17:03:00,41.6,23.3,29.93,SSW,202,0.0,0.0,48,0.00,CLR,,0.00,WeatherDisplay:10.37,2013-02-06 01:03:00,
2013-02-05 17:08:00,41.5,23.2,29.93,South,182,3.5,3.5,48,0.00,CLR,,0.00,WeatherDisplay:10.37,2013-02-06 01:08:00,
2013-02-05 17:13:00,41.3,23.6,29.94,SSW,209,3.5,3.5,49,0.00,CLR,,0.00,WeatherDisplay:10.37,2013-02-06 01:13:00,
2013-02-05 17:18:00,41.1,23.9,29.93,SSE,160,4.0,4.0,50,0.00,CLR,,0.00,WeatherDisplay:10.37,2013-02-06 01:18:00,
2013-02-05 17:23:00,40.9,23.7,29.93,West,261,12.7,12.7,50,0.00,CLR,,0.00,WeatherDisplay:10.37,2013-02-06 01:23:00,
2013-02-05 17:28:00,40.5,24.7,29.94,SW,220,5.0,5.0,53,0.00,CLR,,0.00,WeatherDisplay:10.37,2013-02-06 01:28:00,
2013-02-05 17:33:00,40.1,25.2,29.94,South,178,2.3,2.3,55,0.00,CLR,,0.00,WeatherDisplay:10.37,2013-02-06 01:33:00,
2013-02-05 17:38:00,39.6,26.0,29.94,SW,219,2.3,2.3,58,0.00,CLR,,0.00,WeatherDisplay:10.37,2013-02-06 01:38:00,
2013-02-05 17:43:00,39.2,26.1,29.95,SSW,195,2.3,0.0,59,0.00,CLR,,0.00,WeatherDisplay:10.37,2013-02-06 01:43:00,
2013-02-05 17:48:00,38.8,26.1,29.95,SSW,193,1.1,0.0,60,0.00,CLR,,0.00,WeatherDisplay:10.37,2013-02-06 01:48:00,
2013-02-05 17:53:00,38.6,25.9,29.95,South,179,0.0,0.0,60,0.00,CLR,,0.00,WeatherDisplay:10.37,2013-02-06 01:53:00,
2013-02-05 17:58:00,38.3,25.6,29.95,SSW,198,3.5,0.0,60,0.00,CLR,,0.00,WeatherDisplay:10.37,2013-02-06 01:58:00,
2013-02-05 18:03:00,38.2,25.5,29.96,South,172,0.0,0.0,60,0.00,CLR,,0.00,WeatherDisplay:10.37,2013-02-06 02:03:00,
2013-02-05 18:08:00,38.0,25.7,29.96,South,181,0.0,0.0,61,0.00,CLR,,0.00,WeatherDisplay:10.37,2013-02-06 02:08:00,
2013-02-05 18:13:00,37.9,25.6,29.97,SSW,202,0.0,0.0,61,0.00,CLR,,0.00,WeatherDisplay:10.37,2013-02-06 02:13:00,
2013-02-05 18:18:00,37.8,25.9,29.97,SSW,210,1.1,0.0,62,0.00,CLR,,0.00,WeatherDisplay:10.37,2013-02-06 02:18:00,
2013-02-05 18:23:00,37.8,25.9,29.97,SW,217,1.1,0.0,62,0.00,CLR,,0.00,WeatherDisplay:10.37,2013-02-06 02:23:00,
2013-02-05 18:28:00,37.6,25.7,29.97,South,186,0.0,0.0,62,0.00,CLR,,0.00,WeatherDisplay:10.37,2013-02-06 02:28:00,
2013-02-05 18:33:00,37.6,25.7,29.97,South,176,0.0,0.0,62,0.00,CLR,,0.00,WeatherDisplay:10.37,2013-02-06 02:33:00,
2013-02-05 18:38:00,37.5,25.7,29.97,South,176,0.0,0.0,62,0.00,CLR,,0.00,WeatherDisplay:10.37,2013-02-06 02:38:00,
2013-02-05 18:43:00,37.5,26.0,29.98,South,186,0.0,0.0,63,0.00,CLR,,0.00,WeatherDisplay:10.37,2013-02-06 02:43:00,
2013-02-05 18:48:00,37.3,26.2,29.98,South,186,0.0,0.0,64,0.00,CLR,,0.00,WeatherDisplay:10.37,2013-02-06 02:48:00,
2013-02-05 18:53:00,37.2,26.5,29.98,South,186,0.0,0.0,65,0.00,CLR,,0.00,WeatherDisplay:10.37,2013-02-06 02:53:00,
2013-02-05 18:58:00,37.0,26.3,29.98,SSE,151,0.0,0.0,65,0.00,CLR,,0.00,WeatherDisplay:10.37,2013-02-06 02:58:00,
2013-02-05 19:03:00,37.0,25.9,29.99,SSE,150,0.0,0.0,64,0.00,CLR,,0.00,WeatherDisplay:10.37,2013-02-06 03:03:00,
2013-02-05 19:08:00,37.0,25.9,29.99,SE,144,0.0,0.0,64,0.00,CLR,,0.00,WeatherDisplay:10.37,2013-02-06 03:08:00,
2013-02-05 19:13:00,37.3,25.8,29.99,South,181,0.0,0.0,63,0.00,CLR,,0.00,WeatherDisplay:10.37,2013-02-06 03:13:00,
2013-02-05 19:19:00,37.3,25.5,30.00,South,176,0.0,0.0,62,0.00,CLR,,0.00,WeatherDisplay:10.37,2013-02-06 03:19:00,
2013-02-05 19:24:00,37.0,25.6,30.00,South,172,0.0,0.0,63,0.00,CLR,,0.00,WeatherDisplay:10.37,2013-02-06 03:24:00,
2013-02-05 19:29:00,37.0,25.6,30.00,South,172,0.0,0.0,63,0.00,CLR,,0.00,WeatherDisplay:10.37,2013-02-06 03:29:00,
2013-02-05 19:34:00,36.8,25.8,30.00,SSE,154,0.0,0.0,64,0.00,CLR,,0.00,WeatherDisplay:10.37,2013-02-06 03:34:00,
2013-02-05 19:39:00,36.6,25.6,30.00,SE,134,0.0,0.0,64,0.00,CLR,,0.00,WeatherDisplay:10.37,2013-02-06 03:39:00,
2013-02-05 19:44:00,36.6,25.6,30.00,SE,143,0.0,0.0,64,0.00,CLR,,0.00,WeatherDisplay:10.37,2013-02-06 03:44:00,
2013-02-05 19:49:00,36.6,25.6,30.00,SSE,148,0.0,0.0,64,0.00,CLR,,0.00,WeatherDisplay:10.37,2013-02-06 03:49:00,
2013-02-05 19:54:00,36.5,25.8,30.00,SE,144,0.0,0.0,65,0.00,CLR,,0.00,WeatherDisplay:10.37,2013-02-06 03:54:00,
2013-02-05 19:59:00,36.5,25.8,30.00,SSE,167,0.0,0.0,65,0.00,CLR,,0.00,WeatherDisplay:10.37,2013-02-06 03:59:00,
2013-02-05 20:04:00,36.3,25.7,29.99,SSE,167,0.0,0.0,65,0.00,CLR,,0.00,WeatherDisplay:10.37,2013-02-06 04:04:00,
2013-02-05 20:09:00,36.3,25.7,29.99,SSE,148,0.0,0.0,65,0.00,CLR,,0.00,WeatherDisplay:10.37,2013-02-06 04:09:00,
2013-02-05 20:14:00,36.2,25.6,29.99,SE,143,0.0,0.0,65,0.00,CLR,,0.00,WeatherDisplay:10.37,2013-02-06 04:14:00,
2013-02-05 20:19:00,36.2,25.6,29.99,SSE,162,0.0,0.0,65,0.00,CLR,,0.00,WeatherDisplay:10.37,2013-02-06 04:19:00,
2013-02-05 20:24:00,36.2,25.6,30.00,SSE,167,0.0,0.0,65,0.00,CLR,,0.00,WeatherDisplay:10.37,2013-02-06 04:24:00,
2013-02-05 20:30:00,35.8,25.5,30.00,SSE,161,0.0,0.0,66,0.00,CLR,,0.00,WeatherDisplay:10.37,2013-02-06 04:30:00,
2013-02-05 20:35:00,35.3,25.4,29.99,SSE,160,0.0,0.0,67,0.00,CLR,,0.00,WeatherDisplay:10.37,2013-02-06 04:35:00,
2013-02-05 20:40:00,35.0,25.5,30.00,SSE,158,0.0,0.0,68,0.00,CLR,,0.00,WeatherDisplay:10.37,2013-02-06 04:40:00,
2013-02-05 20:45:00,35.0,25.5,30.00,SSE,157,0.0,0.0,68,0.00,CLR,,0.00,WeatherDisplay:10.37,2013-02-06 04:45:00,
2013-02-05 20:50:00,35.3,25.8,30.00,SE,136,0.0,0.0,68,0.00,CLR,,0.00,WeatherDisplay:10.37,2013-02-06 04:50:00,
2013-02-05 20:55:00,35.3,25.8,30.00,SSE,147,0.0,0.0,68,0.00,CLR,,0.00,WeatherDisplay:10.37,2013-02-06 04:55:00,
2013-02-05 21:00:00,35.6,25.7,30.00,SSE,147,0.0,0.0,67,0.00,CLR,,0.00,WeatherDisplay:10.37,2013-02-06 05:00:00,
2013-02-05 21:01:00,35.6,25.4,30.00,SE,130,0.0,0.0,66,0.00,CLR,,0.00,WeatherDisplay:10.37,2013-02-06 05:01:00,
2013-02-05 21:03:00,35.8,25.5,29.99,ESE,117,0.0,0.0,66,0.00,CLR,,0.00,WeatherDisplay:10.37,2013-02-06 05:03:00,
2013-02-05 21:08:00,35.9,25.3,29.99,SE,140,0.0,0.0,65,0.00,CLR,,0.00,WeatherDisplay:10.37,2013-02-06 05:08:00,
2013-02-05 21:09:00,35.9,25.3,30.00,SE,142,0.0,0.0,65,0.00,CLR,,0.00,WeatherDisplay:10.37,2013-02-06 05:09:00,
2013-02-05 21:15:00,35.8,25.2,30.00,SSE,154,0.0,0.0,65,0.00,CLR,,0.00,WeatherDisplay:10.37,2013-02-06 05:15:00,
2013-02-05 21:20:00,35.9,25.3,30.00,SSE,147,0.0,0.0,65,0.00,CLR,,0.00,WeatherDisplay:10.37,2013-02-06 05:20:00,
2013-02-05 21:25:00,35.9,25.6,30.00,SE,137,0.0,0.0,66,0.00,CLR,,0.00,WeatherDisplay:10.37,2013-02-06 05:25:00,
2013-02-05 21:30:00,35.8,26.3,30.01,SSE,152,0.0,0.0,68,0.00,CLR,,0.00,WeatherDisplay:10.37,2013-02-06 05:30:00,
2013-02-05 21:35:00,36.0,26.5,30.01,SE,143,5.0,5.0,68,0.00,CLR,,0.00,WeatherDisplay:10.37,2013-02-06 05:35:00,
2013-02-05 21:40:00,36.2,26.6,30.01,South,171,0.0,0.0,68,0.00,CLR,,0.00,WeatherDisplay:10.37,2013-02-06 05:40:00,
2013-02-05 21:45:00,36.0,27.2,30.01,SE,138,0.0,0.0,70,0.00,CLR,,0.00,WeatherDisplay:10.37,2013-02-06 05:45:00,
2013-02-05 21:50:00,35.6,27.5,30.01,SSE,157,0.0,0.0,72,0.00,CLR,,0.00,WeatherDisplay:10.37,2013-02-06 05:50:00,
2013-02-05 21:55:00,35.3,27.5,30.01,SSE,147,0.0,0.0,73,0.00,CLR,,0.00,WeatherDisplay:10.37,2013-02-06 05:55:00,
2013-02-05 22:00:00,34.9,27.1,30.02,SSE,165,0.0,0.0,73,0.00,CLR,,0.00,WeatherDisplay:10.37,2013-02-06 06:00:00,
2013-02-05 22:05:00,34.7,26.9,30.02,SSE,155,0.0,0.0,73,0.00,CLR,,0.00,WeatherDisplay:10.37,2013-02-06 06:05:00,
2013-02-05 22:10:00,34.4,26.6,30.02,SSE,155,0.0,0.0,73,0.00,CLR,,0.00,WeatherDisplay:10.37,2013-02-06 06:10:00,
2013-02-05 22:15:00,34.3,25.9,30.02,South,171,0.0,0.0,71,0.00,CLR,,0.00,WeatherDisplay:10.37,2013-02-06 06:15:00,
2013-02-05 22:20:00,34.9,25.4,30.02,SSE,157,1.0,1.0,68,0.00,CLR,,0.00,WeatherDisplay:10.37,2013-02-06 06:20:00,
2013-02-05 22:25:00,35.3,25.4,30.03,South,186,1.1,1.1,67,0.00,CLR,,0.00,WeatherDisplay:10.37,2013-02-06 06:25:00,
2013-02-05 22:30:00,35.5,25.3,30.02,SSW,193,1.1,0.0,66,0.00,CLR,,0.00,WeatherDisplay:10.37,2013-02-06 06:30:00,
2013-02-05 22:35:00,35.3,25.4,30.03,SE,128,0.0,0.0,67,0.00,CLR,,0.00,WeatherDisplay:10.37,2013-02-06 06:35:00,
2013-02-05 22:40:00,34.7,25.2,30.03,East,89,0.0,0.0,68,0.00,CLR,,0.00,WeatherDisplay:10.37,2013-02-06 06:40:00,
2013-02-05 22:45:00,34.3,24.8,30.03,East,82,0.0,0.0,68,0.00,CLR,,0.00,WeatherDisplay:10.37,2013-02-06 06:45:00,
2013-02-05 22:50:00,33.7,24.6,30.03,East,80,0.0,0.0,69,0.00,CLR,,0.00,WeatherDisplay:10.37,2013-02-06 06:50:00,
2013-02-05 22:55:00,33.5,24.8,30.03,East,79,0.0,0.0,70,0.00,CLR,,0.00,WeatherDisplay:10.37,2013-02-06 06:55:00,
2013-02-05 23:00:00,33.4,25.0,30.04,East,79,0.0,0.0,71,0.00,CLR,,0.00,WeatherDisplay:10.37,2013-02-06 07:00:00,
2013-02-05 23:05:00,33.5,25.1,30.04,ENE,58,0.0,0.0,71,0.00,CLR,,0.00,WeatherDisplay:10.37,2013-02-06 07:05:00,
2013-02-05 23:10:00,33.7,25.3,30.04,ENE,73,0.0,0.0,71,0.00,CLR,,0.00,WeatherDisplay:10.37,2013-02-06 07:10:00,
2013-02-05 23:15:00,33.7,25.0,30.05,ENE,75,0.0,0.0,70,0.00,CLR,,0.00,WeatherDisplay:10.37,2013-02-06 07:15:00,
2013-02-05 23:20:00,33.2,24.8,30.05,ENE,76,0.0,0.0,71,0.00,CLR,,0.00,WeatherDisplay:10.37,2013-02-06 07:20:00,
2013-02-05 23:25:00,33.1,24.7,30.05,ENE,75,0.0,0.0,71,0.00,CLR,,0.00,WeatherDisplay:10.37,2013-02-06 07:25:00,
2013-02-05 23:30:00,32.9,24.9,30.06,ENE,76,0.0,0.0,72,0.00,CLR,,0.00,WeatherDisplay:10.37,2013-02-06 07:30:00,
2013-02-05 23:35:00,32.8,24.8,30.06,ENE,76,0.0,0.0,72,0.00,CLR,,0.00,WeatherDisplay:10.37,2013-02-06 07:35:00,
2013-02-05 23:40:00,32.7,24.3,30.06,ENE,76,0.0,0.0,71,0.00,CLR,,0.00,WeatherDisplay:10.37,2013-02-06 07:40:00,
2013-02-05 23:45:00,32.7,24.7,30.06,East,82,0.0,0.0,72,0.00,CLR,,0.00,WeatherDisplay:10.37,2013-02-06 07:45:00,
2013-02-05 23:50:00,32.9,24.5,30.06,SSE,147,0.0,0.0,71,0.00,CLR,,0.00,WeatherDisplay:10.37,2013-02-06 07:50:00,
2013-02-05 23:55:00,33.1,24.7,30.05,SE,140,0.0,0.0,71,0.00,CLR,,0.00,WeatherDisplay:10.37,2013-02-06 07:55:00,